Project,Study,Ord_Occ,Event_Num,Date_Time_UTC,Date_Time_PST,Lat_Dec,Lon_Dec,Sta_ID,Line,Sta,Depth,Pressure,Temp0,Temp1,Salt0,CorrSalt0,Salt1,CorrSalt1,O2ml/L,AveCorrO2ml/L,StaCorrO2ml/L,FluorV,AveEstChl,StaEstChl,ISUSV,AveEstNO3,StaEstNO3,SigThetaTS0,SigThetaTS1,BAT,XMiss,SPAR,PAR,BTL_Depth,BTL_Temp,BTL_Salt,BTL_O2ml/L,BTL_Chl,BTL_Pha,BTL_NO3
CalCOFI,0701JD,041,405,23-Jan-2007 10:28:00 PM,23-Jan-2007 2:28:00 PM,33.65916,-118.97018,086.7 040.0,086.7,040.0,767.000,773.931,5.3318,5.3316,34.3884,34.3871,34.3874,34.3875,0.11201,0.10,0.13,0.0267,,,1.5942,36.31,35.630,27.1592,27.1584,0.4288,89.8345,-9.990e-29,9.9990e+03,768,5.33 ,34.387,  .09,,,35.8
CalCOFI,0701JD,041,405,23-Jan-2007 10:28:12 PM,23-Jan-2007 2:28:12 PM,33.65916,-118.97012,086.7 040.0,086.7,040.0,766.000,772.920,5.3308,5.3305,34.3884,34.3871,34.3875,34.3876,0.11161,0.10,0.13,0.0266,,,1.5744,35.72,35.023,27.1593,27.1586,0.4280,89.8536,7.2899e+00,9.9990e+03,,,,,,,
CalCOFI,0701JD,041,405,23-Jan-2007 10:28:16 PM,23-Jan-2007 2:28:16 PM,33.65916,-118.97000,086.7 040.0,086.7,040.0,765.000,771.909,5.3311,5.3312,34.3883,34.3870,34.3873,34.3874,-9.990e-29,,0.13,0.0265,,,1.5683,35.55,34.836,27.1592,27.1584,0.4276,89.8626,7.0991e+00,9.9990e+03,,,,,,,
CalCOFI,0701JD,041,405,23-Jan-2007 10:28:19 PM,23-Jan-2007 2:28:19 PM,33.65916,-118.97000,086.7 040.0,086.7,040.0,764.000,770.898,5.3310,5.3312,34.3884,34.3871,34.3874,34.3875,-9.990e-29,,0.13,0.0266,,,1.5643,35.43,34.713,27.1593,27.1585,0.4284,89.8449,7.3088e+00,9.9990e+03,,,,,,,
CalCOFI,0701JD,041,405,23-Jan-2007 10:28:22 PM,23-Jan-2007 2:28:22 PM,33.65916,-118.97000,086.7 040.0,086.7,040.0,763.000,769.888,5.3311,5.3313,34.3883,34.3870,34.3874,34.3875,-9.990e-29,,0.13,0.0263,,,1.5784,35.84,35.146,27.1592,27.1585,0.4276,89.8620,7.0331e+00,9.9990e+03,763,5.33 ,34.387,  .09,,,35.5
CalCOFI,0701JD,041,405,23-Jan-2007 10:29:06 PM,23-Jan-2007 2:29:06 PM,33.65916,-118.96995,086.7 040.0,086.7,040.0,762.000,768.877,5.3301,5.3304,34.3884,34.3871,34.3876,34.3877,0.10779,0.10,0.13,0.0266,,,1.5806,35.91,35.213,27.1593,27.1587,0.4282,89.8480,7.3839e+00,9.9990e+03,,,,,,,
CalCOFI,0701JD,041,405,23-Jan-2007 10:30:21 PM,23-Jan-2007 2:30:21 PM,33.65916,-118.96984,086.7 040.0,086.7,040.0,761.000,767.866,5.3291,5.3294,34.3884,34.3871,34.3878,34.3879,0.10709,0.10,0.13,0.0265,,,1.5801,35.89,35.198,27.1594,27.1589,0.4288,89.8355,7.5633e+00,9.9990e+03,,,,,,,
CalCOFI,0701JD,041,405,23-Jan-2007 10:30:22 PM,23-Jan-2007 2:30:22 PM,33.65916,-118.96984,086.7 040.0,086.7,040.0,760.000,766.855,5.3306,5.3309,34.3883,34.3870,34.3872,34.3873,0.10684,0.10,0.13,0.0266,,,1.5525,35.08,34.351,27.1592,27.1583,0.4292,89.8276,7.2414e+00,9.9990e+03,,,,,,,
CalCOFI,0701JD,041,405,23-Jan-2007 10:30:24 PM,23-Jan-2007 2:30:24 PM,33.65916,-118.96984,086.7 040.0,086.7,040.0,759.000,765.844,5.3323,5.3328,34.3881,34.3868,34.3874,34.3875,0.10726,0.10,0.13,0.0265,,,1.5564,35.20,34.471,27.1589,27.1582,0.4290,89.8311,7.3492e+00,9.9990e+03,,,,,,,
CalCOFI,0701JD,041,405,23-Jan-2007 10:30:25 PM,23-Jan-2007 2:30:25 PM,33.65916,-118.96984,086.7 040.0,086.7,040.0,758.000,764.833,5.3337,5.3339,34.3880,34.3867,34.3874,34.3875,0.10738,0.10,0.13,0.0269,,,1.5474,34.93,34.195,27.1586,27.1581,0.4292,89.8274,7.4574e+00,9.9990e+03,,,,,,,
CalCOFI,0701JD,041,405,23-Jan-2007 10:30:26 PM,23-Jan-2007 2:30:26 PM,33.65916,-118.96984,086.7 040.0,086.7,040.0,757.000,763.822,5.3349,5.3351,34.3879,34.3866,34.3874,34.3875,0.10771,0.10,0.13,0.0264,,,1.5553,35.16,34.437,27.1583,27.1579,0.4290,89.8313,-9.990e-29,9.9990e+03,,,,,,,
CalCOFI,0701JD,041,405,23-Jan-2007 10:30:27 PM,23-Jan-2007 2:30:27 PM,33.65916,-118.96984,086.7 040.0,086.7,040.0,756.000,762.811,5.3365,5.3371,34.3881,34.3868,34.3873,34.3874,0.10768,0.10,0.13,0.0262,,,1.5614,35.34,34.624,27.1582,27.1576,0.4295,89.8202,-9.990e-29,9.9990e+03,,,,,,,
CalCOFI,0701JD,041,405,23-Jan-2007 10:30:28 PM,23-Jan-2007 2:30:28 PM,33.65916,-118.96984,086.7 040.0,086.7,040.0,755.000,761.801,5.3419,5.3424,34.3875,34.3862,34.3868,34.3869,0.10766,0.10,0.13,0.0270,,,1.6077,36.70,36.044,27.1572,27.1566,0.4304,89.8006,-9.990e-29,9.9990e+03,,,,,,,
CalCOFI,0701JD,041,405,23-Jan-2007 10:30:29 PM,23-Jan-2007 2:30:29 PM,33.65916,-118.96984,086.7 040.0,086.7,040.0,754.000,760.790,5.3436,5.3439,34.3874,34.3861,34.3867,34.3868,0.10764,0.10,0.13,0.0271,,,1.5867,36.09,35.400,27.1569,27.1563,0.4300,89.8096,7.1995e+00,9.9990e+03,,,,,,,
CalCOFI,0701JD,041,405,23-Jan-2007 10:30:30 PM,23-Jan-2007 2:30:30 PM,33.65916,-118.96984,086.7 040.0,086.7,040.0,753.000,759.779,5.3445,5.3447,34.3873,34.3860,34.3866,34.3867,0.10954,0.10,0.13,0.0265,,,1.5798,35.88,35.189,27.1567,27.1562,0.4309,89.7881,7.3977e+00,9.9990e+03,,,,,,,
CalCOFI,0701JD,041,405,23-Jan-2007 10:30:31 PM,23-Jan-2007 2:30:31 PM,33.65916,-118.96984,086.7 040.0,086.7,040.0,752.000,758.768,5.3444,5.3448,34.3872,34.3859,34.3866,34.3867,0.10951,0.10,0.13,0.0265,,,1.5629,35.39,34.670,27.1566,27.1561,0.4310,89.7851,7.2181e+00,9.9990e+03,,,,,,,
CalCOFI,0701JD,041,405,23-Jan-2007 10:30:33 PM,23-Jan-2007 2:30:33 PM,33.65916,-118.96969,086.7 040.0,086.7,040.0,751.000,757.757,5.3450,5.3443,34.3872,34.3859,34.3865,34.3866,0.11079,0.10,0.13,0.0268,,,1.5812,35.92,35.232,27.1565,27.1561,0.4318,89.7682,7.4329e+00,9.9990e+03,,,,,,,
CalCOFI,0701JD,041,405,23-Jan-2007 10:30:34 PM,23-Jan-2007 2:30:34 PM,33.65916,-118.96968,086.7 040.0,086.7,040.0,750.000,756.746,5.3465,5.3477,34.3869,34.3856,34.3862,34.3863,0.11005,0.10,0.13,0.0267,,,1.5908,36.21,35.526,27.1561,27.1554,0.4300,89.8085,7.2491e+00,9.9990e+03,,,,,,,
CalCOFI,0701JD,041,405,23-Jan-2007 10:30:35 PM,23-Jan-2007 2:30:35 PM,33.65916,-118.96968,086.7 040.0,086.7,040.0,749.000,755.736,5.3484,5.3487,34.3867,34.3854,34.3863,34.3864,0.11048,0.10,0.13,0.0268,,,1.5907,36.20,35.523,27.1557,27.1554,0.4294,89.8224,7.4282e+00,9.9990e+03,,,,,,,
CalCOFI,0701JD,041,405,23-Jan-2007 10:30:36 PM,23-Jan-2007 2:30:36 PM,33.65916,-118.96968,086.7 040.0,086.7,040.0,748.000,754.725,5.3510,5.3514,34.3867,34.3854,34.3860,34.3861,0.11160,0.10,0.13,0.0265,,,1.5997,36.47,35.799,27.1554,27.1548,0.4297,89.8143,7.5036e+00,9.9990e+03,,,,,,,
CalCOFI,0701JD,041,405,23-Jan-2007 10:30:37 PM,23-Jan-2007 2:30:37 PM,33.65916,-118.96968,086.7 040.0,086.7,040.0,747.000,753.714,5.3594,5.3601,34.3863,34.3850,34.3853,34.3854,0.11337,0.10,0.13,0.0267,,,1.6165,36.96,36.314,27.1541,27.1532,0.4312,89.7826,6.9912e+00,9.9990e+03,,,,,,,
CalCOFI,0701JD,041,405,23-Jan-2007 10:30:38 PM,23-Jan-2007 2:30:38 PM,33.65916,-118.96968,086.7 040.0,086.7,040.0,746.000,752.703,5.3678,5.3691,34.3856,34.3843,34.3847,34.3848,0.11462,0.11,0.13,0.0264,,,1.6072,36.69,36.029,27.1525,27.1517,0.4304,89.7994,-9.990e-29,9.9990e+03,,,,,,,
CalCOFI,0701JD,041,405,23-Jan-2007 10:30:39 PM,23-Jan-2007 2:30:39 PM,33.65916,-118.96968,086.7 040.0,086.7,040.0,745.000,751.692,5.3747,5.3765,34.3851,34.3838,34.3841,34.3842,0.11628,0.11,0.14,0.0260,,,1.6062,36.66,35.998,27.1513,27.1503,0.4301,89.8054,-9.990e-29,9.9990e+03,,,,,,,
CalCOFI,0701JD,041,405,23-Jan-2007 10:30:40 PM,23-Jan-2007 2:30:40 PM,33.65916,-118.96968,086.7 040.0,086.7,040.0,744.000,750.681,5.3838,5.3856,34.3842,34.3829,34.3835,34.3836,0.11715,0.11,0.14,0.0266,,,1.6205,37.08,36.437,27.1495,27.1487,0.4301,89.8065,-9.990e-29,9.9990e+03,,,,,,,
CalCOFI,0701JD,041,405,23-Jan-2007 10:30:41 PM,23-Jan-2007 2:30:41 PM,33.65916,-118.96968,086.7 040.0,086.7,040.0,743.000,749.671,5.3826,5.3841,34.3844,34.3831,34.3839,34.3840,0.11799,0.11,0.14,0.0267,,,1.6266,37.26,36.624,27.1498,27.1492,0.4310,89.7870,-9.990e-29,9.9990e+03,,,,,,,
CalCOFI,0701JD,041,405,23-Jan-2007 10:30:42 PM,23-Jan-2007 2:30:42 PM,33.65916,-118.96968,086.7 040.0,086.7,040.0,742.000,748.660,5.3844,5.3855,34.3842,34.3829,34.3836,34.3837,0.11901,0.11,0.14,0.0268,,,1.6219,37.12,36.480,27.1494,27.1488,0.4295,89.8200,-9.990e-29,9.9990e+03,,,,,,,
CalCOFI,0701JD,041,405,23-Jan-2007 10:30:43 PM,23-Jan-2007 2:30:43 PM,33.65916,-118.96968,086.7 040.0,086.7,040.0,741.000,747.649,5.3862,5.3863,34.3840,34.3827,34.3835,34.3836,0.11963,0.11,0.14,0.0269,,,1.6177,37.00,36.351,27.1491,27.1486,0.4303,89.8012,-9.990e-29,9.9990e+03,,,,,,,
CalCOFI,0701JD,041,405,23-Jan-2007 10:30:45 PM,23-Jan-2007 2:30:45 PM,33.65916,-118.96968,086.7 040.0,086.7,040.0,740.000,746.638,5.3824,5.3845,34.3842,34.3829,34.3836,34.3837,0.12050,0.11,0.14,0.0263,,,1.6382,37.60,36.980,27.1496,27.1489,0.4309,89.7874,-9.990e-29,9.9990e+03,,,,,,,
CalCOFI,0701JD,041,405,23-Jan-2007 10:30:46 PM,23-Jan-2007 2:30:46 PM,33.65916,-118.96968,086.7 040.0,086.7,040.0,739.000,745.628,5.3863,5.3864,34.3838,34.3825,34.3833,34.3834,0.12116,0.11,0.14,0.0267,,,1.6306,37.37,36.747,27.1488,27.1484,0.4293,89.8237,-9.990e-29,9.9990e+03,,,,,,,
CalCOFI,0701JD,041,405,23-Jan-2007 10:30:47 PM,23-Jan-2007 2:30:47 PM,33.65916,-118.96968,086.7 040.0,086.7,040.0,738.000,744.617,5.3879,5.3875,34.3837,34.3824,34.3833,34.3834,0.12110,0.11,0.14,0.0258,,,1.6246,37.20,36.563,27.1485,27.1483,0.4293,89.8250,-9.990e-29,9.9990e+03,,,,,,,
CalCOFI,0701JD,041,405,23-Jan-2007 10:30:48 PM,23-Jan-2007 2:30:48 PM,33.65916,-118.96968,086.7 040.0,086.7,040.0,737.000,743.606,5.3878,5.3879,34.3838,34.3825,34.3831,34.3832,0.12204,0.11,0.14,0.0259,,,1.6333,37.45,36.829,27.1486,27.1481,0.4302,89.8050,-9.990e-29,9.9990e+03,,,,,,,
CalCOFI,0701JD,041,405,23-Jan-2007 10:30:49 PM,23-Jan-2007 2:30:49 PM,33.65916,-118.96968,086.7 040.0,086.7,040.0,736.000,742.595,5.3887,5.3880,34.3835,34.3822,34.3833,34.3834,0.12201,0.11,0.14,0.0262,,,1.6414,37.69,37.078,27.1483,27.1482,0.4291,89.8280,-9.990e-29,9.9990e+03,,,,,,,
CalCOFI,0701JD,041,405,23-Jan-2007 10:30:50 PM,23-Jan-2007 2:30:50 PM,33.65916,-118.96968,086.7 040.0,086.7,040.0,735.000,741.585,5.3909,5.3915,34.3835,34.3822,34.3829,34.3830,0.12325,0.12,0.15,0.0259,,,1.6379,37.59,36.971,27.1480,27.1474,0.4291,89.8290,-9.990e-29,9.9990e+03,,,,,,,
CalCOFI,0701JD,041,405,23-Jan-2007 10:30:51 PM,23-Jan-2007 2:30:51 PM,33.65916,-118.96968,086.7 040.0,086.7,040.0,734.000,740.574,5.3918,5.3917,34.3833,34.3820,34.3829,34.3830,0.12405,0.12,0.15,0.0258,,,1.6239,37.18,36.541,27.1477,27.1475,0.4298,89.8131,-9.990e-29,9.9990e+03,,,,,,,
CalCOFI,0701JD,041,405,23-Jan-2007 10:30:52 PM,23-Jan-2007 2:30:52 PM,33.65916,-118.96968,086.7 040.0,086.7,040.0,733.000,739.563,5.3956,5.3955,34.3831,34.3818,34.3825,34.3826,0.12349,0.12,0.15,0.0263,,,1.6295,37.34,36.713,27.1471,27.1466,0.4292,89.8260,-9.990e-29,9.9990e+03,,,,,,,
CalCOFI,0701JD,041,405,23-Jan-2007 10:30:53 PM,23-Jan-2007 2:30:53 PM,33.65916,-118.96968,086.7 040.0,086.7,040.0,732.000,738.552,5.3984,5.3979,34.3829,34.3816,34.3823,34.3824,0.12379,0.12,0.15,0.0262,,,1.6408,37.67,37.060,27.1466,27.1462,0.4295,89.8198,7.3841e+00,9.9990e+03,,,,,,,
CalCOFI,0701JD,041,405,23-Jan-2007 10:30:54 PM,23-Jan-2007 2:30:54 PM,33.65916,-118.96968,086.7 040.0,086.7,040.0,731.000,737.542,5.3978,5.3980,34.3829,34.3816,34.3824,34.3825,0.12494,0.12,0.15,0.0276,,,1.6338,37.47,36.845,27.1467,27.1463,0.4283,89.8463,7.5227e+00,9.9990e+03,,,,,,,
CalCOFI,0701JD,041,405,23-Jan-2007 10:30:55 PM,23-Jan-2007 2:30:55 PM,33.65916,-118.96968,086.7 040.0,086.7,040.0,730.000,736.531,5.3984,5.3986,34.3827,34.3814,34.3823,34.3824,0.12445,0.12,0.15,0.0286,,,1.6655,38.40,37.817,27.1464,27.1461,0.4288,89.8354,7.3738e+00,9.9990e+03,,,,,,,
CalCOFI,0701JD,041,405,23-Jan-2007 10:30:56 PM,23-Jan-2007 2:30:56 PM,33.65916,-118.96968,086.7 040.0,086.7,040.0,729.000,735.520,5.3970,5.3974,34.3828,34.3815,34.3825,34.3826,0.12513,0.12,0.15,0.0265,,,1.6555,38.10,37.510,27.1466,27.1464,0.4290,89.8314,7.4572e+00,9.9990e+03,,,,,,,
CalCOFI,0701JD,041,405,23-Jan-2007 10:30:57 PM,23-Jan-2007 2:30:57 PM,33.65916,-118.96968,086.7 040.0,086.7,040.0,728.000,734.509,5.3968,5.3968,34.3829,34.3816,34.3824,34.3825,0.12499,0.12,0.15,0.0262,,,1.6375,37.58,36.958,27.1468,27.1464,0.4287,89.8381,7.4579e+00,9.9990e+03,,,,,,,
CalCOFI,0701JD,041,405,23-Jan-2007 10:30:58 PM,23-Jan-2007 2:30:58 PM,33.65916,-118.96968,086.7 040.0,086.7,040.0,727.000,733.499,5.3968,5.3969,34.3829,34.3816,34.3824,34.3825,0.12533,0.12,0.15,0.0264,,,1.6633,38.33,37.750,27.1467,27.1463,0.4282,89.8484,7.2602e+00,9.9990e+03,,,,,,,
CalCOFI,0701JD,041,405,23-Jan-2007 10:30:59 PM,23-Jan-2007 2:30:59 PM,33.65916,-118.96968,086.7 040.0,086.7,040.0,726.000,732.488,5.3977,5.3979,34.3827,34.3814,34.3823,34.3824,0.12582,0.12,0.15,0.0268,,,1.6353,37.51,36.891,27.1465,27.1462,0.4289,89.8323,7.4580e+00,9.9990e+03,,,,,,,
CalCOFI,0701JD,041,405,23-Jan-2007 10:31:00 PM,23-Jan-2007 2:31:00 PM,33.65916,-118.96968,086.7 040.0,086.7,040.0,725.000,731.477,5.3975,5.3973,34.3827,34.3814,34.3822,34.3823,0.12586,0.12,0.15,0.0265,,,1.6418,37.70,37.090,27.1465,27.1461,0.4288,89.8347,7.3500e+00,9.9990e+03,,,,,,,
CalCOFI,0701JD,041,405,23-Jan-2007 10:31:02 PM,23-Jan-2007 2:31:02 PM,33.65916,-118.96968,086.7 040.0,086.7,040.0,724.000,730.467,5.3967,5.3969,34.3827,34.3814,34.3822,34.3823,0.12534,0.12,0.15,0.0266,,,1.6283,37.31,36.676,27.1466,27.1461,0.4295,89.8206,-9.990e-29,9.9990e+03,,,,,,,
CalCOFI,0701JD,041,405,23-Jan-2007 10:31:03 PM,23-Jan-2007 2:31:03 PM,33.65916,-118.96968,086.7 040.0,086.7,040.0,723.000,729.456,5.3974,5.3974,34.3827,34.3814,34.3824,34.3825,0.12540,0.12,0.15,0.0264,,,1.6239,37.18,36.541,27.1465,27.1462,0.4297,89.8152,-9.990e-29,9.9990e+03,,,,,,,
CalCOFI,0701JD,041,405,23-Jan-2007 10:31:04 PM,23-Jan-2007 2:31:04 PM,33.65916,-118.96968,086.7 040.0,086.7,040.0,722.000,728.445,5.3976,5.3975,34.3827,34.3814,34.3822,34.3823,0.12582,0.12,0.15,0.0259,,,1.6192,37.04,36.397,27.1464,27.1461,0.4287,89.8383,-9.990e-29,9.9990e+03,,,,,,,
CalCOFI,0701JD,041,405,23-Jan-2007 10:31:05 PM,23-Jan-2007 2:31:05 PM,33.65916,-118.96968,086.7 040.0,086.7,040.0,721.000,727.434,5.3975,5.3979,34.3826,34.3813,34.3822,34.3823,0.12554,0.12,0.15,0.0260,,,1.5961,36.36,35.689,27.1464,27.1460,0.4296,89.8167,7.3594e+00,9.9990e+03,,,,,,,
CalCOFI,0701JD,041,405,23-Jan-2007 10:31:06 PM,23-Jan-2007 2:31:06 PM,33.65916,-118.96968,086.7 040.0,086.7,040.0,720.000,726.424,5.3987,5.3988,34.3827,34.3814,34.3822,34.3823,0.12565,0.12,0.15,0.0257,,,1.6259,37.24,36.603,27.1463,27.1459,0.4287,89.8371,7.3916e+00,9.9990e+03,,,,,,,
CalCOFI,0701JD,041,405,23-Jan-2007 10:31:07 PM,23-Jan-2007 2:31:07 PM,33.65916,-118.96968,086.7 040.0,086.7,040.0,719.000,725.413,5.3978,5.3978,34.3826,34.3813,34.3823,34.3824,0.12559,0.12,0.15,0.0264,,,1.6135,36.87,36.222,27.1463,27.1460,0.4294,89.8216,7.4769e+00,9.9990e+03,,,,,,,
CalCOFI,0701JD,041,405,23-Jan-2007 10:31:08 PM,23-Jan-2007 2:31:08 PM,33.65916,-118.96968,086.7 040.0,086.7,040.0,718.000,724.402,5.3992,5.4011,34.3826,34.3813,34.3821,34.3822,0.12561,0.12,0.15,0.0266,,,1.6121,36.83,36.179,27.1461,27.1455,0.4297,89.8161,7.1134e+00,9.9990e+03,,,,,,,
CalCOFI,0701JD,041,405,23-Jan-2007 10:31:08 PM,23-Jan-2007 2:31:08 PM,33.65916,-118.96968,086.7 040.0,086.7,040.0,717.000,723.392,5.4007,5.4014,34.3824,34.3811,34.3821,34.3822,0.12637,0.12,0.15,0.0264,,,1.6266,37.26,36.624,27.1458,27.1455,0.4310,89.7858,7.2893e+00,9.9990e+03,,,,,,,
CalCOFI,0701JD,041,405,23-Jan-2007 10:31:10 PM,23-Jan-2007 2:31:10 PM,33.65916,-118.96968,086.7 040.0,086.7,040.0,716.000,722.381,5.4094,5.4135,34.3825,34.3812,34.3810,34.3811,0.12910,0.12,0.15,0.0268,,,1.6613,38.28,37.688,27.1448,27.1432,0.4301,89.8058,-9.990e-29,9.9990e+03,,,,,,,
CalCOFI,0701JD,041,405,23-Jan-2007 10:31:11 PM,23-Jan-2007 2:31:11 PM,33.65916,-118.96968,086.7 040.0,086.7,040.0,715.000,721.370,5.4328,5.4327,34.3805,34.3792,34.3798,34.3799,0.13019,0.12,0.15,0.0261,,,1.6506,37.96,37.360,27.1405,27.1399,0.4294,89.8216,-9.990e-29,9.9990e+03,,,,,,,
CalCOFI,0701JD,041,405,23-Jan-2007 10:31:13 PM,23-Jan-2007 2:31:13 PM,33.65916,-118.96968,086.7 040.0,086.7,040.0,714.000,720.360,5.4381,5.4388,34.3802,34.3789,34.3797,34.3798,0.13281,0.13,0.16,0.0259,,,1.6413,37.69,37.075,27.1396,27.1391,0.4297,89.8161,7.8394e+00,9.9990e+03,,,,,,,
CalCOFI,0701JD,041,405,23-Jan-2007 10:31:14 PM,23-Jan-2007 2:31:14 PM,33.65916,-118.96968,086.7 040.0,086.7,040.0,713.000,719.349,5.4394,5.4394,34.3799,34.3786,34.3797,34.3798,0.13444,0.13,0.16,0.0255,,,1.6491,37.92,37.314,27.1392,27.1390,0.4284,89.8450,7.2794e+00,9.9990e+03,,,,,,,
CalCOFI,0701JD,041,405,23-Jan-2007 10:31:15 PM,23-Jan-2007 2:31:15 PM,33.65916,-118.96968,086.7 040.0,086.7,040.0,712.000,718.338,5.4390,5.4389,34.3800,34.3787,34.3798,34.3799,0.13380,0.13,0.16,0.0258,,,1.6549,38.09,37.492,27.1393,27.1391,0.4288,89.8357,7.4879e+00,9.9990e+03,,,,,,,
CalCOFI,0701JD,041,405,23-Jan-2007 10:31:16 PM,23-Jan-2007 2:31:16 PM,33.65916,-118.96968,086.7 040.0,086.7,040.0,711.000,717.328,5.4388,5.4387,34.3798,34.3785,34.3797,34.3798,0.13434,0.13,0.16,0.0262,,,1.6548,38.08,37.489,27.1392,27.1391,0.4291,89.8294,7.1746e+00,9.9990e+03,,,,,,,
CalCOFI,0701JD,041,405,23-Jan-2007 10:31:17 PM,23-Jan-2007 2:31:17 PM,33.65916,-118.96968,086.7 040.0,086.7,040.0,710.000,716.317,5.4385,5.4387,34.3800,34.3787,34.3797,34.3798,0.13311,0.13,0.16,0.0259,,,1.6661,38.42,37.835,27.1393,27.1390,0.4302,89.8046,7.4781e+00,9.9990e+03,,,,,,,
CalCOFI,0701JD,041,405,23-Jan-2007 10:31:17 PM,23-Jan-2007 2:31:17 PM,33.65916,-118.96968,086.7 040.0,086.7,040.0,709.000,715.307,5.4387,5.4385,34.3800,34.3787,34.3796,34.3797,0.13538,0.13,0.16,0.0262,,,1.6810,38.85,38.292,27.1393,27.1390,0.4299,89.8097,7.4048e+00,9.9990e+03,,,,,,,
CalCOFI,0701JD,041,405,23-Jan-2007 10:31:18 PM,23-Jan-2007 2:31:18 PM,33.65916,-118.96968,086.7 040.0,086.7,040.0,708.000,714.296,5.4399,5.4391,34.3797,34.3784,34.3796,34.3797,0.13529,0.13,0.16,0.0262,,,1.6525,38.02,37.418,27.1389,27.1389,0.4299,89.8116,7.1994e+00,9.9990e+03,,,,,,,
CalCOFI,0701JD,041,405,23-Jan-2007 10:31:19 PM,23-Jan-2007 2:31:19 PM,33.65916,-118.96968,086.7 040.0,086.7,040.0,707.000,713.285,5.4416,5.4418,34.3798,34.3785,34.3792,34.3793,0.13606,0.13,0.16,0.0260,,,1.6738,38.64,38.072,27.1388,27.1382,0.4303,89.8010,7.4701e+00,9.9990e+03,,,,,,,
CalCOFI,0701JD,041,405,23-Jan-2007 10:31:21 PM,23-Jan-2007 2:31:21 PM,33.65916,-118.96951,086.7 040.0,086.7,040.0,706.000,712.275,5.4473,5.4487,34.3795,34.3782,34.3789,34.3790,0.13710,0.13,0.16,0.0264,,,1.6670,38.44,37.863,27.1379,27.1372,0.4303,89.8012,7.4487e+00,9.9990e+03,,,,,,,
CalCOFI,0701JD,041,405,23-Jan-2007 10:31:22 PM,23-Jan-2007 2:31:22 PM,33.65916,-118.96950,086.7 040.0,086.7,040.0,705.000,711.264,5.4595,5.4601,34.3786,34.3773,34.3780,34.3781,0.13766,0.13,0.16,0.0266,,,1.6251,37.21,36.578,27.1357,27.1351,0.4291,89.8277,-9.990e-29,9.9990e+03,,,,,,,
CalCOFI,0701JD,041,405,23-Jan-2007 10:31:23 PM,23-Jan-2007 2:31:23 PM,33.65916,-118.96950,086.7 040.0,086.7,040.0,704.000,710.253,5.4627,5.4633,34.3784,34.3771,34.3779,34.3780,0.13928,0.14,0.17,0.0260,,,1.6776,38.75,38.188,27.1351,27.1346,0.4292,89.8266,-9.990e-29,9.9990e+03,,,,,,,
CalCOFI,0701JD,041,405,23-Jan-2007 10:31:25 PM,23-Jan-2007 2:31:25 PM,33.65916,-118.96950,086.7 040.0,086.7,040.0,703.000,709.243,5.4671,5.4672,34.3781,34.3768,34.3777,34.3778,0.14019,0.14,0.17,0.0259,,,1.6815,38.87,38.308,27.1343,27.1340,0.4297,89.8158,-9.990e-29,9.9990e+03,,,,,,,
CalCOFI,0701JD,041,405,23-Jan-2007 10:31:26 PM,23-Jan-2007 2:31:26 PM,33.65916,-118.96950,086.7 040.0,086.7,040.0,702.000,708.232,5.4715,5.4715,34.3778,34.3765,34.3773,34.3774,0.14171,0.14,0.17,0.0258,,,1.6753,38.69,38.118,27.1335,27.1332,0.4287,89.8388,-9.990e-29,9.9990e+03,,,,,,,
CalCOFI,0701JD,041,405,23-Jan-2007 10:31:27 PM,23-Jan-2007 2:31:27 PM,33.65916,-118.96950,086.7 040.0,086.7,040.0,701.000,707.222,5.4762,5.4771,34.3774,34.3761,34.3770,34.3771,0.14301,0.14,0.17,0.0261,,,1.6804,38.84,38.274,27.1327,27.1323,0.4294,89.8212,-9.990e-29,9.9990e+03,,,,,,,
CalCOFI,0701JD,041,405,23-Jan-2007 10:31:27 PM,23-Jan-2007 2:31:27 PM,33.65916,-118.96950,086.7 040.0,086.7,040.0,700.000,706.211,5.4873,5.4888,34.3773,34.3760,34.3763,34.3764,0.14418,0.14,0.17,0.0265,,,1.6976,39.34,38.802,27.1312,27.1303,0.4298,89.8126,-9.990e-29,9.9990e+03,,,,,,,
CalCOFI,0701JD,041,405,23-Jan-2007 10:31:28 PM,23-Jan-2007 2:31:28 PM,33.65916,-118.96950,086.7 040.0,086.7,040.0,699.000,705.200,5.4951,5.4957,34.3761,34.3748,34.3759,34.3760,0.14454,0.14,0.17,0.0259,,,1.6983,39.36,38.823,27.1294,27.1291,0.4288,89.8354,-9.990e-29,9.9990e+03,,,,,,,
CalCOFI,0701JD,041,405,23-Jan-2007 10:31:29 PM,23-Jan-2007 2:31:29 PM,33.65916,-118.96950,086.7 040.0,086.7,040.0,698.000,704.190,5.4972,5.4978,34.3761,34.3748,34.3758,34.3759,0.14636,0.14,0.17,0.0260,,,1.6782,38.77,38.207,27.1291,27.1288,0.4285,89.8422,7.5423e+00,9.9990e+03,,,,,,,
CalCOFI,0701JD,041,405,23-Jan-2007 10:31:30 PM,23-Jan-2007 2:31:30 PM,33.65916,-118.96950,086.7 040.0,086.7,040.0,697.000,703.179,5.4986,5.4978,34.3758,34.3745,34.3757,34.3758,0.14719,0.15,0.17,0.0258,,,1.6892,39.09,38.544,27.1287,27.1287,0.4308,89.7904,7.2078e+00,9.9990e+03,,,,,,,
CalCOFI,0701JD,041,405,23-Jan-2007 10:31:32 PM,23-Jan-2007 2:31:32 PM,33.65916,-118.96950,086.7 040.0,086.7,040.0,696.000,702.169,5.4982,5.4981,34.3759,34.3746,34.3756,34.3757,0.14852,0.15,0.18,0.0260,,,1.6968,39.32,38.777,27.1288,27.1285,0.4299,89.8112,7.4838e+00,9.9990e+03,,,,,,,
CalCOFI,0701JD,041,405,23-Jan-2007 10:31:33 PM,23-Jan-2007 2:31:33 PM,33.65916,-118.96950,086.7 040.0,086.7,040.0,695.000,701.158,5.5018,5.5023,34.3756,34.3743,34.3752,34.3753,0.14799,0.15,0.18,0.0254,,,1.6722,38.60,38.023,27.1281,27.1277,0.4279,89.8563,7.6113e+00,9.9990e+03,,,,,,,
CalCOFI,0701JD,041,405,23-Jan-2007 10:31:34 PM,23-Jan-2007 2:31:34 PM,33.65916,-118.96950,086.7 040.0,086.7,040.0,694.000,700.148,5.5050,5.5051,34.3753,34.3740,34.3750,34.3751,0.14885,0.15,0.18,-9.990e-29,,,1.6503,37.95,37.351,27.1275,27.1273,0.4276,89.8620,7.1398e+00,9.9990e+03,,,,,,,
CalCOFI,0701JD,041,405,23-Jan-2007 10:31:35 PM,23-Jan-2007 2:31:35 PM,33.65916,-118.96950,086.7 040.0,086.7,040.0,693.000,699.137,5.5055,5.5056,34.3753,34.3740,34.3749,34.3750,0.14914,0.15,0.18,-9.990e-29,,,1.6843,38.95,38.394,27.1274,27.1271,0.4293,89.8232,7.3474e+00,9.9990e+03,,,,,,,
CalCOFI,0701JD,041,405,23-Jan-2007 10:31:36 PM,23-Jan-2007 2:31:36 PM,33.65916,-118.96950,086.7 040.0,086.7,040.0,692.000,698.126,5.5059,5.5059,34.3751,34.3738,34.3750,34.3751,0.15016,0.15,0.18,-9.990e-29,,,1.6812,38.86,38.299,27.1272,27.1271,0.4284,89.8444,7.2438e+00,9.9990e+03,,,,,,,
CalCOFI,0701JD,041,405,23-Jan-2007 10:31:37 PM,23-Jan-2007 2:31:37 PM,33.65916,-118.96950,086.7 040.0,086.7,040.0,691.000,697.116,5.5057,5.5058,34.3752,34.3739,34.3749,34.3750,0.15038,0.15,0.18,0.0267,,,1.6994,39.39,38.857,27.1273,27.1271,0.4277,89.8591,7.6782e+00,9.9990e+03,,,,,,,
CalCOFI,0701JD,041,405,23-Jan-2007 10:31:38 PM,23-Jan-2007 2:31:38 PM,33.65916,-118.96950,086.7 040.0,086.7,040.0,690.000,696.105,5.5054,5.5054,34.3752,34.3739,34.3750,34.3751,0.14998,0.15,0.18,0.0259,,,1.6900,39.12,38.568,27.1273,27.1272,0.4286,89.8405,-9.990e-29,9.9990e+03,,,,,,,
CalCOFI,0701JD,041,405,23-Jan-2007 10:31:39 PM,23-Jan-2007 2:31:39 PM,33.65916,-118.96950,086.7 040.0,086.7,040.0,689.000,695.095,5.5058,5.5061,34.3751,34.3738,34.3748,34.3749,0.15012,0.15,0.18,0.0257,,,1.6612,38.27,37.685,27.1272,27.1269,0.4279,89.8560,-9.990e-29,9.9990e+03,,,,,,,
CalCOFI,0701JD,041,405,23-Jan-2007 10:31:40 PM,23-Jan-2007 2:31:40 PM,33.65916,-118.96950,086.7 040.0,086.7,040.0,688.000,694.084,5.5067,5.5076,34.3751,34.3738,34.3748,34.3749,0.15047,0.15,0.18,0.0259,,,1.6607,38.26,37.670,27.1271,27.1267,0.4280,89.8525,-9.990e-29,9.9990e+03,,,,,,,
CalCOFI,0701JD,041,405,23-Jan-2007 10:31:41 PM,23-Jan-2007 2:31:41 PM,33.65916,-118.96950,086.7 040.0,086.7,040.0,687.000,693.074,5.5099,5.5098,34.3747,34.3734,34.3744,34.3745,0.15059,0.15,0.18,0.0258,,,1.6913,39.16,38.608,27.1264,27.1261,0.4276,89.8622,7.3303e+00,9.9990e+03,,,,,,,
CalCOFI,0701JD,041,405,23-Jan-2007 10:31:42 PM,23-Jan-2007 2:31:42 PM,33.65916,-118.96950,086.7 040.0,086.7,040.0,686.000,692.063,5.5102,5.5102,34.3747,34.3734,34.3745,34.3746,-9.990e-29,,0.18,0.0265,,,1.6874,39.04,38.489,27.1263,27.1262,0.4290,89.8300,7.3488e+00,9.9990e+03,,,,,,,
CalCOFI,0701JD,041,405,23-Jan-2007 10:31:44 PM,23-Jan-2007 2:31:44 PM,33.65916,-118.96950,086.7 040.0,086.7,040.0,685.000,691.053,5.5101,5.5101,34.3746,34.3733,34.3744,34.3745,-9.990e-29,,0.18,0.0261,,,1.6749,38.67,38.105,27.1262,27.1260,0.4270,89.8755,7.6874e+00,9.9990e+03,,,,,,,